Regional Weather Roundup
Issued by NWS

Home | Current Version | Previous Version | Graphics & Text | Print | Product List | Glossary Off
Versions: 1 2 3 4 5 6 7 8 9 10 11 12 13 14 15 16 17 18 19 20 21 22 23 24 25 26 27 28 29 30 31 32 33 34 35 36 37 38 39 40 41 42 43 44 45 46 47 48 49 50

000
ASUS43 KDMX 200706
RWRIA

WEATHER ROUNDUP FOR IOWA
NATIONAL WEATHER SERVICE DES MOINES IA
200 AM CDT SUN AUG 20 2017

NOTE: "FAIR" INDICATES FEW OR NO CLOUDS BELOW 12,000 FEET WITH NO
SIGNIFICANT WEATHER AND/OR OBSTRUCTIONS TO VISIBILITY.

* - THESE STATIONS ARE NOT NWS STATIONS...THUS NOT UNDER NWS
QUALITY CONTROL.  THEY ALSO DO NOT REPORT WEATHER SUCH
AS PRECIPITATION OR FOG.

IAZ001>003-012>014-020>022-031>034-043>046-200800-
   NORTHWEST IOWA

CITY           SKY/WX    TMP DP  RH WIND       PRES   REMARKS
CARROLL *      CLOUDY    68  66  94 SW9       29.92S
CHEROKEE *     CLOUDY    71  64  80 S13       29.85F
DENISON *      LGT RAIN  68  64  88 SW7       29.99R
LE MARS *      CLOUDY   100 N/A N/A SE17G24   29.85F
ORANGE CITY *  CLOUDY    77  63  61 S24G32    29.82S
SHELDON *      CLOUDY    68  63  83 CALM      29.83R
SIOUX CITY     LGT RAIN  71  65  81 SE16      29.86R
SPENCER        CLOUDY    72  61  68 SE8       29.84F
STORM LAKE *   CLOUDY    70  63  78 S12       29.89F
$$

IAZ055>058-069>071-079>083-090>094-200800-
   SOUTHWEST IOWA

CITY           SKY/WX    TMP DP  RH WIND       PRES   REMARKS
ATLANTIC *     CLOUDY    70  63  78 E3        29.92R
AUDUBON *      LGT RAIN  70  64  83 CALM      29.96R
CLARINDA *       N/A     75  70  83 S8G14     29.90F
COUNCIL BLFS * LGT RAIN  68  68 100 N10G16    29.93F
CRESTON *      CLOUDY    72  63  73 S9        29.93R
HARLAN  *      CLOUDY    68  66  94 NW7       29.99R
LAMONI         CLOUDY    71  62  73 CALM      29.94R
RED OAK *      CLOUDY    77  68  73 S16G24    29.89R
SHENANDOAH *   CLOUDY    75  70  83 W10G20    29.92R
$$

IAZ047>049-059>061-072>074-084-200800-
   CENTRAL IOWA

CITY           SKY/WX    TMP DP  RH WIND       PRES   REMARKS
AMES           CLOUDY    67  66  97 CALM      29.92R
ANKENY *       CLOUDY    68  64  88 CALM      29.91R
BOONE *        CLOUDY    66  64  94 SE6       29.92F
CHARITON *     CLOUDY    66  61  82 SE6       29.91F
DES MOINES     CLOUDY    71  62  73 S7        29.89F
GRINNELL*      PTCLDY    67  64  89 E5        29.93F
KNOXVILLE *    PTCLDY    68  64  88 S8        29.89F
MARSHALLTOWN   PTCLDY    67  64  90 SE7       29.90F
NEWTON *       PTCLDY    66  64  94 SE7       29.90F
PELLA *        CLOUDY    67  65  91 SE5       29.91F
PERRY *          N/A     67  65  95 S5        29.92R
$$

IAZ004>006-015-016-023>025-035-036-200800-
   NORTH CENTRAL IOWA

CITY           SKY/WX    TMP DP  RH WIND       PRES   REMARKS
ALGONA *       CLOUDY    68  68 100 SE12      29.88F
CLARION *      CLOUDY    68  68 100 SE7       29.90F
ESTHERVILLE    CLOUDY    66  66 100 S7        29.85F
FORT DODGE *   CLOUDY    70  63  78 SE6       29.90F
MASON CITY     CLOUDY    65  62  90 SE9       29.91F
FOREST CITY *    N/A     64  63  94 S5        29.90F
WEBSTER CITY * CLOUDY    68  64  88 SE9       29.89F
IOWA FALLS *     N/A     67  64  93 SE5       29.93F
$$

IAZ007>011-017>019-026>030-037>042-050>054-066-200800-
   NORTHEAST IOWA

CITY           SKY/WX    TMP DP  RH WIND       PRES   REMARKS
CEDAR RAPIDS   CLOUDY    64  62  93 SE6       29.94F
CHARLES CITY * CLOUDY    64  64 100 SE6       29.93F
CLINTON *      CLEAR     63  60  90 E6        29.98S
DECORAH *      CLOUDY    63  61  94 S5        29.94F
DUBUQUE        CLEAR     63  59  87 S7        29.98S
MONTICELLO *   CLOUDY    59  59 100 CALM      29.95F
OELWEIN *      CLOUDY    63  63 100 SE7       29.94F
WATERLOO       CLOUDY    66  62  87 SE6       29.91F
$$

IAZ064-065-067-068-078-200800-
   EAST CENTRAL IOWA

CITY           SKY/WX    TMP DP  RH WIND       PRES   REMARKS
DAVENPORT      CLEAR     65  60  84 SE6       29.99S
IOWA CITY      CLOUDY    67  62  84 SE3       29.96F
MUSCATINE *    CLEAR     63  61  94 CALM      29.96S
QUAD CITIES    CLEAR     65  60  84 E5        29.97S
$$

IAZ062-063-075>077-085>089-095>099-200800-
   SOUTHEAST IOWA

CITY           SKY/WX    TMP DP  RH WIND       PRES   REMARKS
BURLINGTON     CLEAR     69  65  86 SE6       29.95S
FAIRFIELD *    CLOUDY    64  63  94 SE5       29.93F
FORT MADISON * CLEAR     73  68  83 SE8       29.95F
KEOKUK *       CLEAR     72  66  83 MISG      29.94F
OSKALOOSA *      N/A     65  64  94 SE5       29.92F
OTTUMWA        CLOUDY    65  64  97 SE6       29.92F
WASHINGTON *   CLEAR     63  63 100 SE5       29.96F
$$

ABBREVIATIONS USED IN REMARKS
   TC - TEMPERATURES IN CELSIUS
  WCI - WIND CHILL INDEX
   HX - HEAT INDEX
  VSB - VISIBILITY
$$





USA.gov is the U.S. government's official web portal to all federal, state and local government web resources and services.